Weather reports worldwide

Advertisment
Gelbelsee, Germany (10777): temperature & dewpoint: 16.09.2019 23:00:00 - 22.09.2019 23:00:00 (CEST)Gelbelsee, Germany (10777): temperature 5cm & temperature -5cm: 16.09.2019 23:00:00 - 22.09.2019 23:00:00 (CEST)Gelbelsee, Germany (10777): temperature -20cm & temperature -100cm: 16.09.2019 23:00:00 - 22.09.2019 23:00:00 (CEST)Gelbelsee, Germany (10777): wind speed & gusts: 16.09.2019 23:00:00 - 22.09.2019 23:00:00 (CEST)Gelbelsee, Germany (10777): wind direction: 16.09.2019 23:00:00 - 22.09.2019 23:00:00 (CEST)Gelbelsee, Germany (10777): reduced air pressure: 16.09.2019 23:00:00 - 22.09.2019 23:00:00 (CEST)Gelbelsee, Germany (10777): visibility: 16.09.2019 23:00:00 - 22.09.2019 23:00:00 (CEST)Gelbelsee, Germany (10777): sunshine duration: 16.09.2019 23:00:00 - 22.09.2019 23:00:00 (CEST)Gelbelsee, Germany (10777): precipitation: 16.09.2019 23:00:00 - 22.09.2019 23:00:00 (CEST)
Date & Time tt [°C] td [°C] tt 5cm [°C] tt -5cm [°C] tt -20cm [°C] tt -100cm [°C] ff [km/h] ff [kn] fx [km/h] fx [kn] dd ppp [hPa] vv [km] sd [min] rr [mm]
22.09.2019 23:00:00 13,6 9,4 9,3 14,3 16,2 15,9 3 2 10 5 E 1011,2 48 0 0,0
22.09.2019 22:00:00 14,8 9,5 11,8 15,1 16,3 15,9 7 4 10 5 SE 1011,0 55 0 0,0
22.09.2019 21:00:00 15,5 9,6 14,0 16,0 16,4 15,9 5 3 11 6 E 1010,9 59 0 0,0
22.09.2019 20:00:00 16,4 9,9 15,1 16,9 16,5 15,9 7 4 14 8 ESE 1010,8 60 0 0,0
22.09.2019 19:00:00 17,3 9,7 16,6 18,0 16,5 15,9 9 5 13 7 ESE 1010,4 61 0 0,0
22.09.2019 18:00:00 17,9 9,6 17,8 19,0 16,3 15,9 11 6 18 10 SE 1010,4 60 0 0,0
22.09.2019 17:00:00 18,3 9,8 19,1 19,9 16,1 15,9 8 4 16 9 SE 1010,4 75 0 0,0
22.09.2019 16:00:00 18,0 9,1 19,5 20,6 15,7 15,9 9 5 16 8 SE 1010,6 48 0 0,0
22.09.2019 15:00:00 18,2 9,0 20,3 21,0 15,1 15,9 10 6 22 12 SE 1010,9 40 37 0,0
22.09.2019 14:00:00 18,6 8,7 21,7 20,0 14,6 15,9 12 6 17 9 SE 1011,2 57 53 0,0
22.09.2019 13:00:00 18,0 7,9 22,1 19,2 14,0 15,9 12 7 23 12 SE 1011,5 70 60 0,0
22.09.2019 12:00:00 17,5 8,0 21,9 17,6 13,6 15,9 12 6 20 11 ESE 1012,3 65 60 0,0
22.09.2019 11:00:00 15,5 7,3 19,0 14,9 13,4 16,0 12 6 25 14 SE 1013,2 64 60 0,0
22.09.2019 10:00:00 13,3 6,1 15,4 12,5 13,4 16,0 16 9 25 13 SE 1014,0 61 60 0,0
22.09.2019 09:00:00 10,7 6,2 11,2 10,1 13,5 16,0 9 5 16 8 ESE 1014,7 55 57 0,0
22.09.2019 08:00:00 9,0 5,5 7,2 9,1 13,7 16,0 4 2 10 5 E 1014,9 58 19 0,0
22.09.2019 07:00:00 9,3 5,6 4,9 9,3 14,0 16,0 6 4 10 6 ESE 1015,0 63 0 0,0
22.09.2019 06:00:00 9,8 5,6 6,9 9,9 14,2 16,0 7 4 13 7 E 1014,9 58 0 0,0
22.09.2019 05:00:00 10,5 5,8 7,7 10,2 14,4 16,0 9 5 14 8 E 1014,9 58 0 0,0
22.09.2019 04:00:00 11,1 6,0 7,4 10,6 14,7 16,0 7 4 14 8 E 1015,4 57 0 0,0
22.09.2019 03:00:00 11,7 6,3 8,3 11,0 15,0 16,0 8 4 15 8 E 1015,6 70 0 0,0
22.09.2019 02:00:00 12,1 6,7 8,9 11,4 15,2 16,0 9 5 15 8 E 1015,9 62 0 0,0
22.09.2019 01:00:00 11,8 6,9 8,0 11,7 15,6 16,0 9 5 13 7 E 1016,6 55 0 0,0
22.09.2019 00:00:00 12,1 6,6 8,2 12,4 15,9 16,1 7 4 11 6 E 1016,9 57 0 0,0
21.09.2019 23:00:00 12,7 6,6 8,5 13,3 16,1 16,1 6 4 10 6 E 1017,2 58 0 0,0
21.09.2019 22:00:00 14,9 7,0 11,4 14,3 16,4 16,1 7 4 20 11 E 1017,0 71 0 0,0
21.09.2019 21:00:00 15,9 7,2 13,0 15,2 16,6 16,1 10 6 19 11 E 1017,0 73 0 0,0
21.09.2019 20:00:00 16,3 6,4 13,3 16,6 16,7 16,1 10 5 16 9 ENE 1017,1 43 2 0,0
21.09.2019 19:00:00 18,2 5,5 15,9 18,8 16,6 16,1 10 6 22 12 E 1017,2 46 60 0,0
21.09.2019 18:00:00 19,7 5,0 19,3 20,4 16,2 16,1 16 9 27 14 E 1017,3 43 60 0,0
21.09.2019 17:00:00 20,2 4,5 21,4 21,2 15,7 16,1 16 9 27 14 ESE 1017,7 69 60 0,0
21.09.2019 16:00:00 19,9 3,9 22,5 21,0 15,1 16,1 16 9 31 17 ESE 1018,4 58 60 0,0
21.09.2019 15:00:00 19,9 3,6 23,3 20,4 14,4 16,1 18 10 28 15 E 1019,1 52 60 0,0
21.09.2019 14:00:00 18,7 3,4 22,7 19,6 13,7 16,2 16 8 26 14 E 1020,1 47 60 0,0
21.09.2019 13:00:00 17,4 3,5 21,8 18,1 13,2 16,2 14 7 26 14 E 1021,1 59 60 0,0
21.09.2019 12:00:00 15,1 2,4 19,0 16,1 12,7 16,2 16 9 26 14 ESE 1022,1 73 60 0,0
21.09.2019 11:00:00 13,5 2,0 17,2 13,8 12,5 16,2 16 9 28 15 ESE 1022,8 75 60 0,0
21.09.2019 10:00:00 12,2 2,3 14,4 11,3 12,4 16,2 17 9 34 18 ESE 1023,3 69 60 0,0
21.09.2019 09:00:00 10,4 2,0 11,3 9,0 12,5 16,2 17 9 27 15 ESE 1023,6 75 60 0,0
21.09.2019 08:00:00 8,9 1,5 7,8 7,7 12,7 16,2 15 8 22 12 ESE 1023,9 53 17 0,0
21.09.2019 07:00:00 7,6 1,4 5,6 7,5 12,9 16,2 13 7 19 10 E 1024,2 57 0 0,0
21.09.2019 06:00:00 7,0 1,8 4,8 7,6 13,1 16,2 11 6 18 10 E 1024,5 56 0 0,0
21.09.2019 05:00:00 7,4 2,0 5,1 7,7 13,4 16,2 10 5 16 9 E 1024,9 67 0 0,0
21.09.2019 04:00:00 7,0 2,1 3,2 8,1 13,6 16,2 5 3 10 6 E 1025,4 50 0 0,0
21.09.2019 03:00:00 7,5 2,2 3,6 8,4 13,9 16,2 5 3 12 7 E 1025,7 60 0 0,0
21.09.2019 02:00:00 7,7 1,7 4,1 8,8 14,3 16,3 8 4 12 6 E 1026,1 64 0 0,0
21.09.2019 01:00:00 7,7 1,7 4,1 9,2 14,6 16,3 8 4 10 5 E 1026,5 62 0 0,0
21.09.2019 00:00:00 8,4 2,3 4,7 9,8 14,9 16,3 5 3 9 5 E 1026,8 59 0 0,0
20.09.2019 23:00:00 7,8 2,7 2,5 10,4 15,3 16,3 3 2 6 3 NE 1027,1 65 0 0,0
20.09.2019 22:00:00 8,5 2,7 3,7 11,3 15,7 16,3 3 1 6 3 ENE 1027,3 61 0 0,0
20.09.2019 21:00:00 9,0 2,5 3,7 12,4 16,0 16,3 2 1 4 2 E 1027,5 62 0 0,0
20.09.2019 20:00:00 10,2 2,5 5,0 13,9 16,2 16,3 1 1 4 2 ESE 1027,1 53 1 0,0
20.09.2019 19:00:00 12,9 1,2 10,1 15,9 16,2 16,3 5 3 12 7 E 1026,5 60 52 0,0
20.09.2019 18:00:00 14,4 1,0 13,8 17,6 16,0 16,3 6 4 17 9 E 1026,3 59 60 0,0
20.09.2019 17:00:00 14,6 0,9 15,0 18,8 15,6 16,3 11 6 20 11 NE 1026,4 60 60 0,0
20.09.2019 16:00:00 15,0 0,8 17,3 19,7 15,1 16,4 8 4 22 12 E 1026,7 57 60 0,0
20.09.2019 15:00:00 15,2 0,9 18,4 19,4 14,4 16,4 10 5 22 12 E 1027,0 49 60 0,0
20.09.2019 14:00:00 14,4 -0,7 19,3 18,9 13,8 16,4 12 7 22 12 E 1027,6 71 60 0,0
20.09.2019 13:00:00 13,1 -0,6 18,0 17,5 13,2 16,4 11 6 22 12 E 1028,3 59 60 0,0
20.09.2019 12:00:00 12,6 1,0 17,3 15,7 12,8 16,4 14 7 22 12 ESE 1028,8 55 60 0,0
20.09.2019 11:00:00 12,3 1,5 16,4 13,5 12,5 16,4 10 6 17 9 E 1029,2 75 60 0,0
20.09.2019 10:00:00 10,8 2,1 13,8 10,9 12,4 16,4 10 5 14 8 E 1029,3 68 60 0,0
20.09.2019 09:00:00 8,5 2,3 10,0 8,3 12,6 16,4 7 4 9 5 NE 1029,6 66 60 0,0
20.09.2019 08:00:00 5,9 2,1 5,3 6,8 12,8 16,4 6 4 11 6 NE 1029,9 58 14 0,0
20.09.2019 07:00:00 4,8 1,7 1,3 6,6 13,0 16,4 5 3 13 7 ENE 1029,9 48 0 0,0
20.09.2019 06:00:00 4,3 1,5 1,2 6,9 13,3 16,4 6 3 11 6 NNE 1030,0 53 0 0,0
20.09.2019 05:00:00 5,0 1,6 2,2 7,2 13,6 16,4 8 4 11 6 NE 1030,0 54 0 0,0
20.09.2019 04:00:00 4,7 1,4 1,9 7,6 13,9 16,4 6 4 11 6 NE 1030,1 58 0 0,0
20.09.2019 03:00:00 5,9 1,4 1,9 8,1 14,3 16,4 4 2 16 9 E 1030,1 65 0 0,0
20.09.2019 02:00:00 6,3 1,2 3,7 8,5 14,6 16,5 6 4 14 8 NE 1030,4 58 0 0,0
20.09.2019 01:00:00 6,2 1,1 3,4 9,0 15,0 16,5 7 4 11 6 NNE 1030,6 66 0 0,0
20.09.2019 00:00:00 6,2 1,4 2,9 9,6 15,4 16,5 6 3 11 6 NE 1030,8 64 0 0,0
19.09.2019 23:00:00 7,1 1,2 4,2 10,4 15,8 16,5 8 4 16 8 NE 1030,6 64 0 0,0
19.09.2019 22:00:00 7,9 1,3 4,7 11,3 16,2 16,5 8 4 13 7 NE 1030,2 68 0 0,0
19.09.2019 21:00:00 7,7 1,9 3,3 12,5 16,5 16,5 6 3 10 5 NNE 1029,8 55 0 0,0
19.09.2019 20:00:00 9,8 1,2 6,6 14,1 16,7 16,5 8 4 12 7 NE 1028,8 61 2 0,0
19.09.2019 19:00:00 11,8 0,6 9,5 16,3 16,7 16,5 8 4 18 10 ENE 1027,9 53 60 0,0
19.09.2019 18:00:00 13,0 0,6 12,8 18,2 16,5 16,5 12 7 21 11 ENE 1027,6 48 60 0,0
19.09.2019 17:00:00 13,7 0,5 15,6 19,2 16,1 16,5 10 5 23 12 NE 1027,5 57 60 0,0
19.09.2019 16:00:00 13,0 0,0 15,8 19,2 15,5 16,5 11 6 27 14 N 1027,7 52 60 0,0
19.09.2019 15:00:00 12,9 0,7 17,5 18,8 14,9 16,5 11 6 24 13 N 1027,7 57 60 0,0
19.09.2019 14:00:00 12,4 0,5 17,9 18,3 14,4 16,5 14 8 26 14 N 1028,1 74 60 0,0
19.09.2019 13:00:00 11,7 0,6 17,0 17,1 13,9 16,5 12 6 24 13 NE 1028,3 50 57 0,0
19.09.2019 12:00:00 11,3 1,9 16,7 15,4 13,5 16,6 10 6 22 12 NNE 1028,4 61 59 0,0
19.09.2019 11:00:00 11,0 2,1 15,2 13,4 13,3 16,6 13 7 23 12 ENE 1028,5 60 60 0,0
19.09.2019 10:00:00 9,8 2,7 12,6 11,1 13,3 16,6 12 7 23 12 NE 1028,5 44 60 0,0
19.09.2019 09:00:00 8,3 2,4 9,4 9,0 13,4 16,6 13 7 22 12 NE 1028,3 69 60 0,0
19.09.2019 08:00:00 6,3 2,4 5,8 7,7 13,7 16,6 8 5 16 9 NNE 1028,1 48 16 0,0
19.09.2019 07:00:00 5,9 2,3 4,1 7,9 13,9 16,6 9 5 19 10 N 1027,6 48 0 0,0
19.09.2019 06:00:00 6,2 2,3 4,4 8,1 14,2 16,6 9 5 15 8 NNE 1027,3 45 0 0,0
19.09.2019 05:00:00 6,3 2,1 4,3 8,3 14,5 16,6 10 6 15 8 N 1027,3 50 0 0,0
19.09.2019 04:00:00 6,1 2,2 3,5 8,7 14,8 16,6 7 4 11 6 N 1027,2 54 0 0,0
19.09.2019 03:00:00 5,7 2,0 2,7 9,0 15,2 16,6 8 5 12 7 N 1027,2 48 0 0,0
19.09.2019 02:00:00 7,0 1,9 3,2 9,6 15,6 16,6 5 3 9 5 NNE 1026,8 49 0 0,0
19.09.2019 01:00:00 8,2 2,1 4,5 10,2 15,9 16,6 6 4 11 6 N 1026,5 55 0 0,0
19.09.2019 00:00:00 8,3 2,2 4,6 10,9 16,3 16,6 9 5 13 7 N 1026,3 54 0 0,0
18.09.2019 23:00:00 9,6 2,3 4,7 11,7 16,7 16,6 6 4 14 7 N 1025,8 60 0 0,0
18.09.2019 22:00:00 8,5 2,8 5,2 12,5 17,1 16,6 8 5 12 7 N 1025,9 56 0 0,0
18.09.2019 21:00:00 10,3 2,7 4,8 13,8 17,4 16,6 4 2 10 5 N 1025,3 62 0 0,0
18.09.2019 20:00:00 10,9 3,0 6,2 15,5 17,6 16,6 6 3 15 8 NNW 1024,6 59 11 0,0
18.09.2019 19:00:00 13,5 2,1 12,2 17,8 17,5 16,6 11 6 21 11 N 1023,5 48 60 0,0
18.09.2019 18:00:00 14,6 1,5 15,0 19,6 17,3 16,6 11 6 21 11 N 1022,9 66 60 0,0
18.09.2019 17:00:00 14,8 0,7 16,7 20,3 16,8 16,6 11 6 23 12 NNE 1023,1 58 60 0,0
18.09.2019 16:00:00 14,6 0,5 18,1 20,3 16,3 16,6 9 5 24 13 N 1023,3 41 60 0,0
18.09.2019 15:00:00 15,0 1,1 20,4 19,6 15,6 16,6 10 5 21 12 NNW 1023,5 62 60 0,0
18.09.2019 14:00:00 14,7 2,7 19,7 19,1 15,0 16,6 6 3 26 14 N 1023,9 23 60 0,0
18.09.2019 13:00:00 13,5 1,7 18,5 17,8 14,5 16,6 8 4 19 10 N 1024,6 50 60 0,0
18.09.2019 12:00:00 12,1 2,1 17,2 16,1 14,1 16,6 8 4 22 12 NNE 1025,3 47 60 0,0
18.09.2019 11:00:00 10,7 2,0 15,1 13,9 13,9 16,6 10 6 20 11 N 1025,5 67 60 0,0
18.09.2019 10:00:00 9,3 3,5 12,5 11,6 13,9 16,6 14 7 18 10 N 1025,9 51 60 0,0
18.09.2019 09:00:00 8,3 3,5 10,5 9,4 14,1 16,6 8 4 13 7 N 1025,7 52 60 0,0
18.09.2019 08:00:00 6,3 3,5 5,2 7,8 14,4 16,6 6 3 9 5 NNW 1025,7 42 19 0,0
18.09.2019 07:00:00 4,6 3,1 0,4 8,0 14,7 16,6 6 3 9 5 NNW 1025,7 46 0 0,0
18.09.2019 06:00:00 6,5 3,4 3,0 8,6 15,0 16,6 8 4 11 6 NNW 1025,0 46 0 0,0
18.09.2019 05:00:00 7,4 4,3 2,6 9,3 15,3 16,6 3 2 12 6 N 1024,4 43 0 0,0
18.09.2019 04:00:00 8,4 4,8 5,0 9,9 15,6 16,6 8 4 16 9 NNW 1023,7 55 0 0,0
18.09.2019 03:00:00 9,1 5,0 6,8 10,4 15,9 16,6 10 5 19 10 NNW 1023,3 65 0 0,0
18.09.2019 02:00:00 9,7 5,2 6,8 10,9 16,2 16,6 9 5 16 9 NW 1022,7 52 0 0,0
18.09.2019 01:00:00 10,5 5,0 8,0 11,4 16,5 16,6 11 6 17 9 WNW 1022,1 52 0 0,0
18.09.2019 00:00:00 11,2 5,2 8,8 12,0 16,8 16,6 11 6 19 11 WNW 1021,6 55 0 0,0
17.09.2019 23:00:00 12,1 5,3 9,2 12,6 17,1 16,6 11 6 22 12 NW 1021,0 56 0 0,0
17.09.2019 22:00:00 13,0 5,9 10,2 13,4 17,4 16,6 13 7 21 11 WNW 1020,4 52 0 0,0
17.09.2019 21:00:00 13,8 6,0 11,5 14,3 17,6 16,6 13 7 22 12 NW 1019,6 54 0 0,0
17.09.2019 20:00:00 14,5 8,9 11,9 15,6 17,7 16,6 11 6 21 11 WNW 1018,3 44 7 0,0
17.09.2019 19:00:00 15,6 8,6 14,1 17,0 17,7 16,6 13 7 26 14 W 1017,6 50 23 0,0
17.09.2019 18:00:00 16,3 8,4 16,3 18,6 17,6 16,6 21 11 35 19 W 1017,4 54 55 0,0
17.09.2019 17:00:00 16,1 9,0 17,5 18,7 17,4 16,6 19 10 37 20 WNW 1017,4 74 47 0,0
17.09.2019 16:00:00 15,2 11,4 16,9 18,1 17,3 16,6 18 10 31 17 WNW 1017,7 56 7 0,0
17.09.2019 15:00:00 14,5 11,7 16,4 17,2 17,3 16,6 16 9 24 13 NW 1018,4 57 0 0,0
17.09.2019 14:00:00 14,4 11,8 15,7 17,0 17,2 16,6 10 5 27 15 W 1018,5 66 0 0,0
17.09.2019 13:00:00 14,0 11,6 16,2 17,7 17,1 16,6 9 5 16 8 WNW 1018,9 64 2 0,0
17.09.2019 12:00:00 13,0 11,7 15,5 16,2 17,1 16,6 7 4 18 10 N 1019,4 37 0 0,0
17.09.2019 11:00:00 12,4 11,1 13,3 15,4 17,2 16,6 14 7 22 12 NNW 1019,5 15 0 0,0
17.09.2019 10:00:00 12,5 11,7 12,8 15,0 17,4 16,6 12 7 16 9 NNW 1019,1 31 0 0,0
17.09.2019 09:00:00 12,7 12,1 12,9 15,1 17,5 16,6 9 5 18 10 NNW 1018,7 18 0 0,0
17.09.2019 08:00:00 13,8 12,3 13,5 15,1 17,7 16,6 11 6 18 10 NNW 1018,2 21 0 0,0
17.09.2019 07:00:00 13,7 12,1 12,9 15,1 17,9 16,5 11 6 18 10 WNW 1017,8 25 0 0,0
17.09.2019 06:00:00 13,5 12,3 12,9 15,3 18,1 16,5 8 5 14 7 WNW 1017,8 30 0 0,1
17.09.2019 05:00:00 13,8 12,0 12,9 15,5 18,3 16,5 8 5 19 10 WNW 1017,9 33 0 0,4
17.09.2019 04:00:00 14,9 11,3 13,3 15,9 18,5 16,5 8 4 17 9 WNW 1017,6 48 0 0,1
17.09.2019 03:00:00 16,0 9,8 13,7 16,3 18,7 16,5 10 6 21 11 NW 1017,5 32 0 0,1
17.09.2019 02:00:00 16,5 9,6 14,3 16,7 18,9 16,5 11 6 16 9 NW 1017,3 63 0 0,0
17.09.2019 01:00:00 17,3 8,8 16,1 17,4 19,1 16,5 10 6 16 8 WNW 1017,5 69 0 0,0
17.09.2019 00:00:00 17,5 9,2 16,2 17,8 19,3 16,5 8 4 16 8 WNW 1017,6 75 0 0,0
16.09.2019 23:00:00 18,3 8,7 16,9 18,2 19,5 16,5 9 5 21 11 NW 1017,5 74 0 0,0

tt = temperature
td = dewpoint
tt 5cm = temperature 5cm
tt -5cm = temperature -5cm
tt -20cm = temperature -20cm
tt -100cm = temperature -100cm
ff = wind speed
fx = gusts
dd = wind direction
ppp = reduced air pressure
vv = visibility
sd = sunshine duration
rr = precipitation

Next stations